Simultaneous Nadir Overpasses (SNOs) Predictions

Prediction of SNOs between METOP-A and NOAA-19 Satellite Orbit:

Table of predicted SNOs for the next 14.0 days since TLE Epoch: 4/10/2021
Index Date (METOP-A) Time (METOP-A) Lat,Lon (METOP-A) SZA (METOP-A ) Date (NOAA-19) Time (NOAA-19) Lat,Lon (NOAA-19) SZA (NOAA-19 ) Distance(km) Time Diff (sec)
1 04/19/2021 10:56:29 -80.86,-153.67 110.37 04/19/2021 10:55:15 -80.86,-153.54 110.37 2.20 74
2 04/19/2021 11:47:09 80.87, 13.79 69.64 04/19/2021 11:46:12 80.86, 13.90 69.63 2.12 57
3 04/19/2021 12:37:50 -80.87,-178.81 110.37 04/19/2021 12:37:15 -80.86,-178.90 110.39 1.99 35
4 04/19/2021 13:28:31 80.86, -11.70 69.60 04/19/2021 13:28:13 80.86, -11.82 69.59 2.10 18
5 04/19/2021 14:19:12 -80.86, 155.69 110.41 04/19/2021 14:19:15 -80.86, 155.75 110.41 1.00 3
6 04/19/2021 15:09:53 80.85, -37.20 69.56 04/19/2021 15:10:13 80.86, -37.17 69.57 1.42 20
7 04/19/2021 16:00:33 -80.87, 130.54 110.42 04/19/2021 16:01:15 -80.86, 130.39 110.43 3.13 42



Historial Predications of SNOs between METOP-A and NOAA-19
